Theta_e
320 321 321 318 320 322 323 326 325 324 325 327 333 336 334 335 333 333 331 329 331 332 332 332 331 332 331 331 332 331 329 328
319 320 321 317 320 321 322 325 324 323 323 326 330 335 334 336 335 334 334 333 329 329 332 332 331 331 332 333 332 331 330 329
320 321 321 318 320 321 322 324 323 323 321 325 329 333 337 336 334 334 333 333 332 331 332 332 331 332 332 332 332 331 330 329
320 322 322 318 320 320 322 324 322 321 321 322 326 327 331 333 335 332 331 330 332 330 325 326 325 318 306 316 328 331 329 328
320 322 322 320 321 323 323 324 322 321 320 320 323 325 326 332 332 332 330 332 334 328 327 326 323 316 305 307 317 329 328 328
322 324 325 324 323 323 325 325 322 319 320 318 321 322 324 328 330 331 333 333 333 331 327 326 321 310 305 306 318 332 331 329
325 326 328 325 324 324 324 324 322 319 319 319 318 321 324 326 328 331 334 335 333 332 329 327 320 316 303 303 319 329 329 327
327 328 328 326 326 325 324 323 322 319 319 321 318 319 325 326 332 333 334 336 334 330 329 330 319 319 299 299 307 326 326 324
330 329 327 327 327 326 324 323 323 322 321 322 321 321 326 330 334 334 334 334 331 332 329 330 328 321 310 298 297 316 322 318
329 328 328 329 328 326 324 324 326 324 322 322 322 326 321 329 333 332 332 331 333 329 330 327 328 325 310 297 295 298 299 319
328 329 330 330 328 326 324 327 327 324 323 324 325 324 324 329 330 330 328 330 328 323 324 322 322 324 315 300 295 295 300 315
329 329 330 330 329 328 327 328 327 325 325 326 326 323 323 327 328 329 325 324 323 322 320 320 320 321 321 313 307 302 299 309
329 328 330 331 331 330 329 329 327 325 326 326 326 324 322 326 327 327 325 326 321 322 321 320 320 318 319 312 309 312 316 315
330 331 333 332 332 331 330 329 327 328 326 325 324 323 321 324 324 325 299 305 302 299 300 314 321 311 300 300 300 301 301 300
329 329 329 331 331 331 331 329 329 327 327 326 323 321 322 320 321 321 319 307 296 296 299 299 304 305 299 298 298 298 297 298
329 329 329 330 330 330 332 331 330 328 330 311 324 322 324 321 321 320 322 318 315 314 300 304 295 294 295 295 294 298 305 304
331 328 327 327 328 330 332 332 330 329 328 326 325 324 323 321 321 320 319 320 317 317 309 303 294 292 292 292 296 313 311 311
326 328 329 328 328 331 332 331 332 331 329 315 318 325 323 323 322 321 319 317 319 317 315 311 307 305 308 308 310 314 314 314
328 330 332 332 331 331 330 332 333 330 329 327 316 324 323 323 322 321 320 319 318 317 316 312 300 310 309 309 309 311 312 314
330 331 339 338 335 334 332 332 334 330 330 329 325 324 324 323 323 322 323 320 320 318 317 309 293 311 311 310 311 311 317 317
Wind_Speed
13 13 13 11 11 10 10 8 7 7 6 7 2 5 6 6 7 8 5 6 7 5 6 5 7 7 8 10 9 9 8 9
14 13 13 12 12 11 11 9 8 7 7 8 4 5 6 4 5 8 7 7 6 6 4 6 9 7 7 9 9 9 9 8
14 13 12 13 12 10 11 10 9 7 8 9 5 4 4 5 5 5 11 10 6 7 5 2 10 11 6 9 9 9 9 10
16 14 14 14 14 11 10 10 10 8 7 10 8 6 4 5 6 5 6 5 7 9 7 8 7 6 7 12 10 8 7 7
17 16 14 13 13 11 11 10 11 9 8 10 10 7 7 6 6 5 4 5 6 10 9 8 6 6 10 10 12 8 7 8
17 15 13 13 13 13 11 11 11 11 9 11 11 10 9 7 7 6 6 4 5 6 8 7 6 4 9 10 8 7 6 7
15 15 14 14 13 13 12 12 13 12 11 11 12 11 11 8 7 8 6 4 4 3 7 8 7 4 5 9 4 6 6 5
14 18 16 15 13 14 13 13 13 13 12 12 12 11 11 10 7 8 7 5 5 4 6 7 10 6 2 3 4 2 6 4
14 19 18 17 15 14 14 14 14 13 12 12 11 10 9 8 8 7 6 5 6 5 6 6 7 8 6 6 6 1 4 5
15 17 16 17 16 15 15 13 12 13 13 12 12 9 9 8 9 8 7 5 5 5 6 5 5 8 9 6 6 5 7 2
13 14 16 16 17 17 16 12 13 13 11 11 11 12 8 10 9 8 7 5 4 6 5 5 5 7 5 11 10 9 6 2
12 14 18 17 17 17 15 14 14 13 10 10 12 12 8 10 9 8 8 8 7 8 7 7 6 8 7 6 5 5 4 7
12 11 14 18 16 16 16 16 16 12 10 11 12 10 10 10 9 9 9 9 9 7 7 7 6 9 9 11 10 7 6 5
10 8 9 16 17 16 17 17 17 12 11 11 11 11 10 9 9 7 5 2 13 9 6 5 7 11 19 19 16 14 13 12
12 12 11 11 16 16 17 18 17 16 12 12 10 11 11 10 10 9 9 6 11 6 8 5 4 11 23 22 19 17 15 10
10 13 13 12 13 16 16 18 17 17 13 14 11 12 11 12 10 10 8 9 7 5 4 2 6 11 14 18 18 14 5 2
7 8 9 12 12 14 15 17 17 17 15 12 12 11 11 13 11 11 11 10 11 9 5 4 8 12 11 7 12 9 9 7
6 7 6 9 11 12 15 16 15 13 15 17 14 11 12 10 12 12 12 11 10 12 11 10 8 5 5 6 4 4 6 7
3 3 6 5 6 11 13 13 13 11 12 12 14 11 11 13 11 13 12 11 11 12 12 13 19 14 11 10 8 6 6 3
6 4 3 7 9 2 8 13 11 10 9 13 14 14 12 12 9 11 10 12 12 11 12 12 18 13 12 10 10 8 4 9
Wind_Direction
167 167 169 180 171 170 168 191 171 172 168 121 165 116 92 101 121 119 128 104 100 113 102 131 128 139 148 132 128 127 126 127
170 170 171 179 173 174 169 182 166 168 152 135 164 130 135 147 149 143 137 112 109 102 139 122 139 154 138 126 130 128 132 135
173 175 172 176 172 178 171 177 161 161 157 137 159 142 156 150 137 98 132 138 142 133 122 158 100 122 142 130 129 141 133 132
178 177 176 176 172 181 175 174 153 162 159 143 158 174 172 134 103 104 109 115 125 127 85 76 66 70 64 119 128 130 121 119
180 178 178 174 171 184 167 173 151 162 167 151 164 182 157 143 140 132 89 95 93 105 96 89 75 62 46 74 119 116 118 133
178 172 171 166 168 177 164 174 158 169 187 161 168 177 162 173 154 132 108 90 91 108 117 110 99 71 49 46 108 115 124 136
173 164 159 160 170 172 170 181 169 178 190 167 170 182 162 175 165 140 138 140 129 135 129 128 118 117 67 57 75 104 110 122
166 158 156 163 170 170 174 188 174 186 188 176 169 181 165 169 158 147 148 165 160 190 141 140 143 143 176 102 46 102 123 111
162 158 166 167 167 171 182 189 182 186 190 178 165 169 158 158 143 146 151 175 173 215 151 146 143 147 176 196 111 350 150 148
163 159 166 165 167 172 186 193 182 190 194 178 163 149 166 154 146 155 160 188 172 196 146 150 147 149 158 202 122 74 17 193
166 161 161 166 172 177 186 190 185 193 197 170 153 148 169 150 150 157 165 189 195 185 174 176 179 156 163 159 154 118 32 82
167 169 161 169 181 181 180 187 186 194 193 161 151 152 163 152 161 168 184 183 209 184 196 191 191 164 159 154 153 138 120 99
164 183 165 168 179 181 178 187 186 194 182 163 157 161 167 162 176 181 197 182 201 191 198 188 190 173 173 167 163 167 165 171
161 165 173 171 173 182 182 187 187 191 178 169 168 166 172 174 183 189 68 258 168 112 90 193 193 171 155 163 163 164 167 172
175 180 190 190 175 179 185 187 190 188 184 174 174 176 171 189 184 205 185 57 76 59 122 78 132 162 163 166 165 165 170 138
197 188 186 192 186 178 185 185 197 182 181 173 180 189 179 187 188 195 194 187 180 173 339 79 111 128 156 146 140 122 131 234
181 204 201 199 197 181 179 187 196 182 180 182 185 182 204 183 196 191 206 193 188 185 114 86 79 77 85 95 156 161 171 185
223 168 227 206 194 182 179 187 187 182 182 186 183 200 189 213 191 196 195 209 185 186 165 162 148 133 155 165 204 202 187 192
145 165 220 261 200 179 182 179 180 198 181 181 186 196 223 197 216 198 199 200 205 187 186 169 169 173 175 182 185 199 220 241
149 250 12 51 20 11 182 168 175 192 199 180 187 203 207 226 214 218 202 203 203 204 183 165 169 180 183 178 185 192 166 122